Tracking 25734 objects as of 26-May-2022
HD Live streaming from Space Station
objects crossing your sky now

COSMOS 447

Track COSMOS 447 now!
10-day predictions
COSMOS 447 is classified as:


NORAD ID: 5550
Int'l Code: 1971-086D
Perigee: 1,417.8 km
Apogee: 1,520.6 km
Inclination: 74.0 °
Period: 115.1 minutes
Semi major axis: 7840 km
RCS: 0.7637 m2 (medium)
Launch date: October 13, 1971
Source: Commonwealth of Independent States (former USSR) (CIS)
Launch site: PLESETSK MISSILE AND SPACE COMPLEX (PKMTR)
aabbcc
Your satellite tracking list
Your tracking list is empty




NASA's NSSDC Master Catalog

Two Line Element Set (TLE):
1 05550U 71086D   22145.44483104  .00000002  00000-0  11193-3 0  9999
2 05550  74.0258 123.3370 0065564  35.6340  86.8180 12.50588386310707
Source of the keplerian elements: AFSPC